Location: Sceptre
(50.8619°N, 109.2670°W)
Time: 17:55:40
(UTC+00:00)

Tiangong - Visible Passes

Search period start: 24 January 2022 00:00
Search period end: 03 February 2022 00:00
Orbit: 383 x 386 km, 41.5° (Epoch: 23 January)

Date Brightness Start Highest point End Pass type
(mag) Time Alt. Az. Time Alt. Az. Time Alt. Az.
30 Jan 3.7 01:43:03 10° S 01:43:51 11° SSE 01:44:26 10° SSE visible
31 Jan 3.6 02:18:24 10° SSW 02:19:42 14° S 02:19:42 14° S visible
01 Feb 3.6 01:19:04 10° SSW 01:20:40 13° SSE 01:22:16 10° SE visible
01 Feb 4.3 02:54:51 10° SW 02:54:56 10° SW 02:54:56 10° SW visible
02 Feb 3.4 01:55:07 10° SW 01:57:05 15° S 01:57:57 14° SSE visible
